Weather History for Sturgeon Bay, WI

Change the Weather History Date:

Wednesday, August 7, 2013

  Actual Average Record
Temperature  
Mean Temperature 65 °F -  
Max Temperature 73 °F 78 °F 93 °F (2001)
Min Temperature 59 °F 58 °F 42 °F (1989)
Growing Degree Days 15 (Base 50)    
Moisture  
Dew Point 60 °F    
Average Humidity 82    
Maximum Humidity 100    
Minimum Humidity 60    
Precipitation  
Precipitation 0.85 in - - ()
Sea Level Pressure  
Sea Level Pressure 29.85 in    
Wind  
Wind Speed 9 mph (NNW)    
Max Wind Speed 22 mph    
Max Gust Speed 31 mph    
Visibility 10 miles    
Events Thunderstorm    
Averages and records for this station are not official NWS values.
T = Trace of Precipitation, MM = Missing Value Source: NWS Daily Summary

Daily Weather History Graph

Daily Weather History Graph

Search for Another Location

Airport:

Trip Planner

Search our weather history database for the weather conditions in past years. The results will help you decide how hot, cold, wet, or windy it might be!

Date:

Astronomy

Aug. 07, 2013 Rise Set
Actual Time 5:42 AM CDT 8:07 PM CDT
Civil Twilight 5:09 AM CDT 8:40 PM CDT
Nautical Twilight 4:28 AM CDT 9:20 PM CDT
Astronomical Twilight 3:42 AM CDT 10:06 PM CDT
Moon 6:35 AM CDT (8/7) 8:08 PM CDT (8/7)
Length of Visible Light 15h 30m
Length of Day
14h 24m
New Moon, 1% of the Moon is Illuminated
Aug 7
New Moon
Aug 14
First Quarter
Aug 20
Full
Aug 28
Last Quarter
Sep 5
New

Hourly Weather History & Observations

Time (CDT) Temp. Dew Point Humidity Pressure Visibility Wind Dir Wind Speed Gust Speed Precip Events Conditions
12:15 AM 68.0 °F 64.4 °F 88% 29.72 in 10.0 mi South 9.2 mph - N/A   Clear
12:35 AM 69.8 °F 64.4 °F 83% 29.71 in 10.0 mi South 13.8 mph - N/A Thunderstorm Mostly Cloudy
12:55 AM 64.4 °F 62.6 °F 94% 29.76 in 4.0 mi NW 21.9 mph 31.1 mph 0.35 in Thunderstorm Thunderstorm
1:15 AM 62.6 °F 60.8 °F 94% 29.76 in 8.0 mi NNW 17.3 mph - 0.24 in Thunderstorm Thunderstorm
1:35 AM 62.6 °F 60.8 °F 94% 29.79 in 9.0 mi NW 15.0 mph 27.6 mph 0.32 in Thunderstorm Overcast
1:55 AM 62.6 °F 59.0 °F 88% 29.79 in 10.0 mi WNW 9.2 mph - 0.39 in Thunderstorm Mostly Cloudy
2:15 AM 62.6 °F 60.8 °F 94% 29.74 in 10.0 mi NNE 5.8 mph - 0.10 in Thunderstorm Overcast
2:35 AM 60.8 °F 60.8 °F 100% 29.69 in 10.0 mi ESE 5.8 mph - 0.11 in   Mostly Cloudy
2:55 AM 60.8 °F 59.0 °F 94% 29.75 in 10.0 mi SSW 4.6 mph - 0.11 in   Partly Cloudy
3:15 AM 60.8 °F 59.0 °F 94% 29.73 in 10.0 mi SSW 5.8 mph - N/A   Clear
3:35 AM 60.8 °F 59.0 °F 94% 29.73 in 10.0 mi SW 5.8 mph - N/A   Clear
3:55 AM 60.8 °F 59.0 °F 94% 29.73 in 10.0 mi SW 5.8 mph - N/A   Clear
4:15 AM 60.8 °F 57.2 °F 88% 29.73 in 10.0 mi WSW 4.6 mph - N/A   Clear
4:35 AM 60.8 °F 57.2 °F 88% 29.74 in 10.0 mi SW 5.8 mph - N/A   Clear
4:55 AM 59.0 °F 57.2 °F 94% 29.75 in 10.0 mi SW 8.1 mph - N/A   Clear
5:15 AM 59.0 °F 57.2 °F 94% 29.75 in 10.0 mi SW 8.1 mph - N/A   Clear
5:35 AM 60.8 °F 57.2 °F 88% 29.75 in 10.0 mi WSW 6.9 mph - N/A   Clear
5:55 AM 60.8 °F 57.2 °F 88% 29.75 in 10.0 mi WSW 6.9 mph - N/A   Clear
6:15 AM 60.8 °F 57.2 °F 88% 29.75 in 10.0 mi West 5.8 mph - N/A   Partly Cloudy
6:35 AM 60.8 °F 59.0 °F 94% 29.76 in 10.0 mi West 8.1 mph - N/A   Mostly Cloudy
6:55 AM 62.6 °F 60.8 °F 94% 29.77 in 8.0 mi WSW 11.5 mph - N/A   Overcast
7:15 AM 62.6 °F 60.8 °F 94% 29.78 in 9.0 mi West 5.8 mph - N/A   Overcast
7:35 AM 62.6 °F 60.8 °F 94% 29.78 in 10.0 mi West 8.1 mph - N/A   Overcast
7:55 AM 60.8 °F 59.0 °F 94% 29.80 in 7.0 mi West 8.1 mph - N/A   Overcast
8:15 AM 60.8 °F 59.0 °F 94% 29.80 in 10.0 mi West 10.4 mph - N/A   Overcast
8:35 AM 60.8 °F 59.0 °F 94% 29.80 in 10.0 mi West 10.4 mph - N/A   Overcast
8:55 AM 62.6 °F 60.8 °F 94% 29.78 in 10.0 mi West 9.2 mph - N/A   Overcast
9:15 AM 64.4 °F 60.8 °F 88% 29.80 in 10.0 mi WNW 9.2 mph - N/A   Overcast
9:35 AM 64.4 °F 60.8 °F 88% 29.80 in 9.0 mi NW 10.4 mph - N/A   Overcast
9:55 AM 66.2 °F 60.8 °F 83% 29.81 in 10.0 mi NW 11.5 mph 16.1 mph N/A   Overcast
10:15 AM 66.2 °F 60.8 °F 83% 29.81 in 10.0 mi WNW 11.5 mph - N/A   Overcast
10:35 AM 66.2 °F 62.6 °F 88% 29.83 in 10.0 mi WNW 9.2 mph - N/A   Overcast
10:55 AM 66.2 °F 60.8 °F 83% 29.84 in 10.0 mi NNW 11.5 mph - N/A   Overcast
11:15 AM 66.2 °F 60.8 °F 83% 29.85 in 10.0 mi NNW 12.7 mph - N/A   Overcast
11:35 AM 66.2 °F 60.8 °F 83% 29.86 in 10.0 mi North 10.4 mph - N/A   Overcast
11:55 AM 68.0 °F 60.8 °F 78% 29.86 in 10.0 mi NNW 9.2 mph - N/A   Overcast
12:15 PM 69.8 °F 60.8 °F 73% 29.87 in 10.0 mi NNW 9.2 mph - N/A   Overcast
12:35 PM 68.0 °F 60.8 °F 78% 29.87 in 10.0 mi NNW 10.4 mph - N/A   Overcast
12:55 PM 69.8 °F 60.8 °F 73% 29.88 in 10.0 mi North 9.2 mph - N/A   Overcast
1:15 PM 69.8 °F 60.8 °F 73% 29.87 in 10.0 mi North 5.8 mph - N/A   Overcast
1:35 PM 69.8 °F 62.6 °F 78% 29.88 in 10.0 mi NNW 6.9 mph - N/A   Scattered Clouds
1:55 PM 69.8 °F 60.8 °F 73% 29.89 in 10.0 mi North 3.5 mph - N/A   Mostly Cloudy
2:15 PM 69.8 °F 60.8 °F 73% 29.89 in 10.0 mi NNE 9.2 mph - N/A   Overcast
2:35 PM 69.8 °F 60.8 °F 73% 29.89 in 10.0 mi North 6.9 mph - N/A   Overcast
2:55 PM 71.6 °F 60.8 °F 69% 29.89 in 10.0 mi North 3.5 mph - N/A   Scattered Clouds
3:15 PM 71.6 °F 60.8 °F 69% 29.89 in 10.0 mi North 6.9 mph - N/A   Scattered Clouds
3:35 PM 71.6 °F 60.8 °F 69% 29.89 in 10.0 mi NNW 6.9 mph - N/A   Scattered Clouds
3:55 PM 71.6 °F 60.8 °F 69% 29.89 in 10.0 mi NNW 9.2 mph - N/A   Scattered Clouds
4:15 PM 71.6 °F 59.0 °F 64% 29.89 in 10.0 mi North 9.2 mph - N/A   Partly Cloudy
4:35 PM 71.6 °F 59.0 °F 64% 29.89 in 10.0 mi North 9.2 mph - N/A   Clear
4:55 PM 71.6 °F 59.0 °F 64% 29.90 in 10.0 mi North 9.2 mph - N/A   Clear
5:15 PM 71.6 °F 59.0 °F 64% 29.90 in 10.0 mi NNE 8.1 mph - N/A   Clear
5:35 PM 71.6 °F 59.0 °F 64% 29.91 in 10.0 mi North 6.9 mph - N/A   Partly Cloudy
5:55 PM 71.6 °F 59.0 °F 64% 29.91 in 10.0 mi North 6.9 mph - N/A   Scattered Clouds
6:15 PM 71.6 °F 59.0 °F 64% 29.91 in 10.0 mi North 5.8 mph - N/A   Mostly Cloudy
6:35 PM 71.6 °F 59.0 °F 64% 29.92 in 10.0 mi North 5.8 mph - N/A   Partly Cloudy
6:55 PM 71.6 °F 57.2 °F 60% 29.92 in 10.0 mi North 5.8 mph - N/A   Clear
7:15 PM 69.8 °F 59.0 °F 68% 29.92 in 10.0 mi North 4.6 mph - N/A   Clear
7:35 PM 69.8 °F 59.0 °F 68% 29.93 in 10.0 mi North 3.5 mph - N/A   Partly Cloudy
7:55 PM 68.0 °F 59.0 °F 73% 29.94 in 10.0 mi North 3.5 mph - N/A   Mostly Cloudy
8:15 PM 66.2 °F 59.0 °F 78% 29.95 in 10.0 mi ENE 8.1 mph - N/A   Mostly Cloudy
8:35 PM 64.4 °F 60.8 °F 88% 29.96 in 10.0 mi ENE 5.8 mph - N/A   Mostly Cloudy
8:55 PM 64.4 °F 59.0 °F 83% 29.98 in 10.0 mi East 4.6 mph - N/A   Mostly Cloudy
9:15 PM 64.4 °F 59.0 °F 83% 29.99 in 10.0 mi East 4.6 mph - N/A   Mostly Cloudy
9:35 PM 64.4 °F 59.0 °F 83% 30.00 in 10.0 mi East 3.5 mph - N/A   Mostly Cloudy
9:55 PM 64.4 °F 60.8 °F 88% 30.01 in 10.0 mi East 6.9 mph - N/A   Scattered Clouds
10:15 PM 62.6 °F 59.0 °F 88% 30.01 in 10.0 mi ENE 4.6 mph - N/A   Mostly Cloudy
10:35 PM 62.6 °F 59.0 °F 88% 30.01 in 10.0 mi ENE 3.5 mph - N/A   Scattered Clouds
10:55 PM 62.6 °F 59.0 °F 88% 30.02 in 10.0 mi East 3.5 mph - N/A   Clear
11:15 PM 62.6 °F 59.0 °F 88% 30.02 in 10.0 mi East 3.5 mph - N/A   Clear
11:35 PM 60.8 °F 57.2 °F 88% 30.02 in 10.0 mi East 4.6 mph - N/A   Clear
11:55 PM 60.8 °F 57.2 °F 88% 30.02 in 10.0 mi East 4.6 mph - N/A   Clear